Time,TemperatureF,DewpointF,PressureIn,WindDirection,WindDirectionDegrees,WindSpeedMPH,WindSpeedGustMPH,Humidity,HourlyPrecipIn,Conditions,Clouds,dailyrainin,SoftwareType,DateUTC
2013-05-13 00:12:00,28.0,16.0,-100.00,WNW,290,1.0,2.0,61,0.00,,,-99.99,,2013-05-13 05:12:00,
2013-05-13 00:21:00,28.0,16.0,-100.00,WNW,290,1.0,2.0,61,0.00,,,-99.99,,2013-05-13 05:21:00,
2013-05-13 00:32:00,28.0,16.0,-100.00,WNW,290,1.0,2.0,61,0.00,,,-99.99,,2013-05-13 05:32:00,
2013-05-13 00:42:00,28.0,16.0,-100.00,WNW,290,1.0,2.0,61,0.00,,,-99.99,,2013-05-13 05:42:00,
2013-05-13 01:01:00,26.0,17.0,-100.00,WNW,285,1.0,2.0,66,0.00,,,-99.99,,2013-05-13 06:01:00,
2013-05-13 01:11:00,26.0,17.0,-100.00,WNW,285,1.0,2.0,66,0.00,,,-99.99,,2013-05-13 06:11:00,
2013-05-13 01:21:00,26.0,17.0,-100.00,WNW,285,1.0,2.0,66,0.00,,,-99.99,,2013-05-13 06:21:00,
2013-05-13 01:31:00,26.0,17.0,-100.00,WNW,285,1.0,2.0,66,0.00,,,-99.99,,2013-05-13 06:31:00,
2013-05-13 02:01:00,25.0,17.0,-100.00,WNW,285,2.0,2.0,71,0.00,,,-99.99,,2013-05-13 07:01:00,
2013-05-13 02:11:00,25.0,17.0,-100.00,WNW,285,2.0,2.0,71,0.00,,,-99.99,,2013-05-13 07:11:00,
2013-05-13 02:22:00,25.0,17.0,-100.00,WNW,285,2.0,2.0,71,0.00,,,-99.99,,2013-05-13 07:22:00,
2013-05-13 02:31:00,25.0,17.0,-100.00,WNW,285,2.0,2.0,71,0.00,,,-99.99,,2013-05-13 07:31:00,
2013-05-13 03:11:00,24.0,17.0,-100.00,WNW,300,1.0,2.0,74,0.00,,,-99.99,,2013-05-13 08:11:00,
2013-05-13 03:21:00,24.0,17.0,-100.00,WNW,300,1.0,2.0,74,0.00,,,-99.99,,2013-05-13 08:21:00,
2013-05-13 03:31:00,24.0,17.0,-100.00,WNW,300,1.0,2.0,74,0.00,,,-99.99,,2013-05-13 08:31:00,
2013-05-13 03:42:00,24.0,17.0,-100.00,WNW,300,1.0,2.0,74,0.00,,,-99.99,,2013-05-13 08:42:00,
2013-05-13 04:11:00,24.0,18.0,-100.00,NW,325,1.0,1.0,77,0.00,,,-99.99,,2013-05-13 09:11:00,
2013-05-13 04:21:00,24.0,18.0,-100.00,NW,325,1.0,1.0,77,0.00,,,-99.99,,2013-05-13 09:21:00,
2013-05-13 04:33:00,24.0,18.0,-100.00,NW,325,1.0,1.0,77,0.00,,,-99.99,,2013-05-13 09:33:00,
2013-05-13 04:42:00,24.0,18.0,-100.00,NW,325,1.0,1.0,77,0.00,,,-99.99,,2013-05-13 09:42:00,
2013-05-13 05:12:00,23.0,17.0,-100.00,NW,315,0.0,1.0,78,0.00,,,-99.99,,2013-05-13 10:12:00,
2013-05-13 05:22:00,23.0,17.0,-100.00,NW,315,0.0,1.0,78,0.00,,,-99.99,,2013-05-13 10:22:00,
2013-05-13 05:32:00,23.0,17.0,-100.00,NW,315,0.0,1.0,78,0.00,,,-99.99,,2013-05-13 10:32:00,
2013-05-13 05:42:00,23.0,17.0,-100.00,NW,315,0.0,1.0,78,0.00,,,-99.99,,2013-05-13 10:42:00,
2013-05-13 06:12:00,23.0,18.0,-100.00,NW,310,1.0,1.0,81,0.00,,,-99.99,,2013-05-13 11:12:00,
2013-05-13 06:21:00,23.0,18.0,-100.00,NW,310,1.0,1.0,81,0.00,,,-99.99,,2013-05-13 11:21:00,
2013-05-13 06:32:00,23.0,18.0,-100.00,NW,310,1.0,1.0,81,0.00,,,-99.99,,2013-05-13 11:32:00,
2013-05-13 06:42:00,23.0,18.0,-100.00,NW,310,1.0,1.0,81,0.00,,,-99.99,,2013-05-13 11:42:00,
2013-05-13 07:11:00,27.0,20.0,-100.00,NW,310,1.0,3.0,75,0.00,,,-99.99,,2013-05-13 12:11:00,
2013-05-13 07:21:00,27.0,20.0,-100.00,NW,310,1.0,3.0,75,0.00,,,-99.99,,2013-05-13 12:21:00,
2013-05-13 07:32:00,27.0,20.0,-100.00,NW,310,1.0,3.0,75,0.00,,,-99.99,,2013-05-13 12:32:00,
2013-05-13 07:42:00,27.0,20.0,-100.00,NW,310,1.0,3.0,75,0.00,,,-99.99,,2013-05-13 12:42:00,
2013-05-13 08:01:00,31.0,20.0,-100.00,WNW,300,1.0,2.0,65,0.00,,,-99.99,,2013-05-13 13:01:00,
2013-05-13 08:11:00,41.0,18.0,-100.00,WNW,290,0.0,1.0,39,0.00,,,-99.99,,2013-05-13 13:11:00,
2013-05-13 08:21:00,41.0,18.0,-100.00,WNW,290,0.0,1.0,39,0.00,,,-99.99,,2013-05-13 13:21:00,
2013-05-13 08:31:00,41.0,18.0,-100.00,WNW,290,0.0,1.0,39,0.00,,,-99.99,,2013-05-13 13:31:00,
2013-05-13 08:42:00,41.0,18.0,-100.00,WNW,290,0.0,1.0,39,0.00,,,-99.99,,2013-05-13 13:42:00,
2013-05-13 09:11:00,46.0,8.0,-100.00,SSE,160,4.0,9.0,21,0.00,,,-99.99,,2013-05-13 14:11:00,
2013-05-13 09:22:00,46.0,8.0,-100.00,SSE,160,4.0,9.0,21,0.00,,,-99.99,,2013-05-13 14:22:00,
2013-05-13 09:32:00,46.0,8.0,-100.00,SSE,160,4.0,9.0,21,0.00,,,-99.99,,2013-05-13 14:32:00,
2013-05-13 09:41:00,46.0,8.0,-100.00,SSE,160,4.0,9.0,21,0.00,,,-99.99,,2013-05-13 14:41:00,
2013-05-13 10:21:00,50.0,8.0,-100.00,West,260,1.0,12.0,18,0.00,,,-99.99,,2013-05-13 15:21:00,
2013-05-13 10:32:00,50.0,8.0,-100.00,West,260,1.0,12.0,18,0.00,,,-99.99,,2013-05-13 15:32:00,
2013-05-13 10:42:00,50.0,8.0,-100.00,West,260,1.0,12.0,18,0.00,,,-99.99,,2013-05-13 15:42:00,
2013-05-13 11:12:00,53.0,7.0,-100.00,SW,220,4.0,13.0,15,0.00,,,-99.99,,2013-05-13 16:12:00,
2013-05-13 11:21:00,53.0,7.0,-100.00,SW,220,4.0,13.0,15,0.00,,,-99.99,,2013-05-13 16:21:00,
2013-05-13 11:33:00,53.0,7.0,-100.00,SW,220,4.0,13.0,15,0.00,,,-99.99,,2013-05-13 16:33:00,
2013-05-13 11:42:00,53.0,7.0,-100.00,SW,220,4.0,13.0,15,0.00,,,-99.99,,2013-05-13 16:42:00,
2013-05-13 12:02:00,56.0,6.0,-100.00,South,185,5.0,14.0,13,0.00,,,-99.99,,2013-05-13 17:02:00,
2013-05-13 12:12:00,56.0,6.0,-100.00,South,185,5.0,14.0,13,0.00,,,-99.99,,2013-05-13 17:12:00,
2013-05-13 12:21:00,56.0,6.0,-100.00,South,185,5.0,14.0,13,0.00,,,-99.99,,2013-05-13 17:21:00,
2013-05-13 12:32:00,56.0,6.0,-100.00,South,185,5.0,14.0,13,0.00,,,-99.99,,2013-05-13 17:32:00,
2013-05-13 13:03:00,56.0,6.0,-100.00,South,175,9.0,16.0,13,0.00,,,-99.99,,2013-05-13 18:03:00,
2013-05-13 13:12:00,56.0,6.0,-100.00,South,175,9.0,16.0,13,0.00,,,-99.99,,2013-05-13 18:12:00,
2013-05-13 13:23:00,56.0,6.0,-100.00,South,175,9.0,16.0,13,0.00,,,-99.99,,2013-05-13 18:23:00,
2013-05-13 13:32:00,56.0,6.0,-100.00,South,175,9.0,16.0,13,0.00,,,-99.99,,2013-05-13 18:32:00,
2013-05-13 14:01:00,57.0,5.0,-100.00,South,170,6.0,12.0,12,0.00,,,-99.99,,2013-05-13 19:01:00,
2013-05-13 14:11:00,57.0,5.0,-100.00,South,170,6.0,12.0,12,0.00,,,-99.99,,2013-05-13 19:11:00,
2013-05-13 14:21:00,57.0,5.0,-100.00,South,170,6.0,12.0,12,0.00,,,-99.99,,2013-05-13 19:21:00,
2013-05-13 14:32:00,57.0,5.0,-100.00,South,170,6.0,12.0,12,0.00,,,-99.99,,2013-05-13 19:32:00,
2013-05-13 15:02:00,59.0,6.0,-100.00,SW,225,6.0,14.0,12,0.00,,,-99.99,,2013-05-13 20:02:00,
2013-05-13 15:11:00,59.0,6.0,-100.00,SW,225,6.0,14.0,12,0.00,,,-99.99,,2013-05-13 20:11:00,
2013-05-13 15:23:00,59.0,6.0,-100.00,SW,225,6.0,14.0,12,0.00,,,-99.99,,2013-05-13 20:23:00,
2013-05-13 15:33:00,59.0,6.0,-100.00,SW,225,6.0,14.0,12,0.00,,,-99.99,,2013-05-13 20:33:00,
2013-05-13 16:03:00,58.0,7.0,-100.00,SSW,205,3.0,12.0,13,0.00,,,-99.99,,2013-05-13 21:03:00,
2013-05-13 16:14:00,58.0,7.0,-100.00,SSW,205,3.0,12.0,13,0.00,,,-99.99,,2013-05-13 21:14:00,
2013-05-13 16:23:00,58.0,7.0,-100.00,SSW,205,3.0,12.0,13,0.00,,,-99.99,,2013-05-13 21:23:00,
2013-05-13 16:33:00,58.0,7.0,-100.00,SSW,205,3.0,12.0,13,0.00,,,-99.99,,2013-05-13 21:33:00,
2013-05-13 17:02:00,59.0,14.0,-100.00,SW,235,6.0,14.0,17,0.00,,,-99.99,,2013-05-13 22:02:00,
2013-05-13 17:12:00,59.0,14.0,-100.00,SW,235,6.0,14.0,17,0.00,,,-99.99,,2013-05-13 22:12:00,
2013-05-13 17:23:00,59.0,14.0,-100.00,SW,235,6.0,14.0,17,0.00,,,-99.99,,2013-05-13 22:23:00,
2013-05-13 17:32:00,59.0,14.0,-100.00,SW,235,6.0,14.0,17,0.00,,,-99.99,,2013-05-13 22:32:00,
2013-05-13 18:02:00,59.0,17.0,-100.00,South,170,9.0,24.0,19,0.00,,,-99.99,,2013-05-13 23:02:00,
2013-05-13 18:12:00,59.0,17.0,-100.00,South,170,9.0,24.0,19,0.00,,,-99.99,,2013-05-13 23:12:00,
2013-05-13 18:23:00,59.0,17.0,-100.00,South,170,9.0,24.0,19,0.00,,,-99.99,,2013-05-13 23:23:00,
2013-05-13 18:33:00,59.0,17.0,-100.00,South,170,9.0,24.0,19,0.00,,,-99.99,,2013-05-13 23:33:00,
2013-05-13 19:02:00,60.0,18.0,-100.00,SSW,195,6.0,21.0,19,0.00,,,-99.99,,2013-05-14 00:02:00,
2013-05-13 19:12:00,60.0,18.0,-100.00,SSW,195,6.0,21.0,19,0.00,,,-99.99,,2013-05-14 00:12:00,
2013-05-13 19:22:00,60.0,18.0,-100.00,SSW,195,6.0,21.0,19,0.00,,,-99.99,,2013-05-14 00:22:00,
2013-05-13 19:31:00,60.0,18.0,-100.00,SSW,195,6.0,21.0,19,0.00,,,-99.99,,2013-05-14 00:31:00,
2013-05-13 20:02:00,57.0,18.0,-100.00,SSE,165,7.0,16.0,21,0.00,,,-99.99,,2013-05-14 01:02:00,
2013-05-13 20:11:00,57.0,18.0,-100.00,SSE,165,7.0,16.0,21,0.00,,,-99.99,,2013-05-14 01:11:00,
2013-05-13 20:21:00,57.0,18.0,-100.00,SSE,165,7.0,16.0,21,0.00,,,-99.99,,2013-05-14 01:21:00,
2013-05-13 20:32:00,57.0,18.0,-100.00,SSE,165,7.0,16.0,21,0.00,,,-99.99,,2013-05-14 01:32:00,
2013-05-13 21:02:00,55.0,19.0,-100.00,South,180,6.0,13.0,24,0.00,,,-99.99,,2013-05-14 02:02:00,
2013-05-13 21:11:00,55.0,19.0,-100.00,South,180,6.0,13.0,24,0.00,,,-99.99,,2013-05-14 02:11:00,
2013-05-13 21:22:00,55.0,19.0,-100.00,South,180,6.0,13.0,24,0.00,,,-99.99,,2013-05-14 02:22:00,
2013-05-13 21:32:00,55.0,19.0,-100.00,South,180,6.0,13.0,24,0.00,,,-99.99,,2013-05-14 02:32:00,
2013-05-13 22:01:00,53.0,21.0,-100.00,SE,145,4.0,9.0,28,0.00,,,-99.99,,2013-05-14 03:01:00,
2013-05-13 22:11:00,53.0,21.0,-100.00,SE,145,4.0,9.0,28,0.00,,,-99.99,,2013-05-14 03:11:00,
2013-05-13 22:21:00,53.0,21.0,-100.00,SE,145,4.0,9.0,28,0.00,,,-99.99,,2013-05-14 03:21:00,
2013-05-13 22:33:00,53.0,21.0,-100.00,SE,145,4.0,9.0,28,0.00,,,-99.99,,2013-05-14 03:33:00,
2013-05-13 23:03:00,52.0,24.0,-100.00,SSE,155,4.0,6.0,34,0.00,,,-99.99,,2013-05-14 04:03:00,
2013-05-13 23:13:00,52.0,24.0,-100.00,SSE,155,4.0,6.0,34,0.00,,,-99.99,,2013-05-14 04:13:00,
2013-05-13 23:23:00,52.0,24.0,-100.00,SSE,155,4.0,6.0,34,0.00,,,-99.99,,2013-05-14 04:23:00,
2013-05-13 23:32:00,52.0,24.0,-100.00,SSE,155,4.0,6.0,34,0.00,,,-99.99,,2013-05-14 04:32:00,